Ketchikan, AK

9:09 AM AKST on November 13, 2018 (GMT -0900)
Ketchikan International

Weather History for PAKT - October, 2017

Change the Weather History Date:

Sunday, October 22, 2017

  Actual Average Record
Temperature  
Mean Temperature 47 °F -  
Max Temperature 52 °F 50 °F 61 °F (1965)
Min Temperature 43 °F 40 °F 30 °F (1976)
Degree Days  
Heating Degree Days 18    
Moisture  
Dew Point 44 °F    
Average Humidity 90    
Maximum Humidity 100    
Minimum Humidity 76    
Precipitation  
Precipitation 0.25 in - - ()
Sea Level Pressure  
Sea Level Pressure 29.71 in    
Wind  
Wind Speed 7 mph (SE)    
Max Wind Speed 14 mph    
Max Gust Speed 20 mph    
Visibility 8 miles    
Events Rain    
Averages and records for this station are not official NWS values.
T = Trace of Precipitation, MM = Missing Value Source: NWS Daily Summary

Daily Weather History Graph

Daily Weather History Graph

Search for Another Location

Airport or City:

Astronomy

Oct. 22, 2017 Rise Set
Actual Time 7:32 AM AKDT 5:29 PM AKDT
Civil Twilight 6:54 AM AKDT 6:07 PM AKDT
Nautical Twilight 6:11 AM AKDT 6:49 PM AKDT
Astronomical Twilight 5:29 AM AKDT 7:31 PM AKDT
Moon 10:29 AM AKDT (10/22) 7:23 PM AKDT (10/22)
Length of Visible Light 11h 12m
Length of Day
9h 57m
Waxing Crescent, 9% of the Moon is Illuminated
Oct 22
Waxing Crescent
Oct 27
First Quarter
Nov 3
Full
Nov 10
Last Quarter
Nov 18
New

Hourly Weather History & Observations

Time (AKDT) Temp. Windchill Dew Point Humidity Pressure Visibility Wind Dir Wind Speed Gust Speed Precip Events Conditions
12:53 AM 44.1 °F 39.5 °F 39.0 °F 82% 29.21 in 10.0 mi South 8.1 mph - 0.00 in   Overcast
1:53 AM 44.1 °F 41.5 °F 39.9 °F 85% 29.22 in 10.0 mi South 4.6 mph - N/A   Overcast
2:53 AM 45.0 °F 40.6 °F 39.0 °F 80% 29.24 in 10.0 mi SSE 8.1 mph - 0.00 in Rain Light Rain
3:53 AM 44.1 °F 40.8 °F 41.0 °F 89% 29.27 in 9.0 mi South 5.8 mph - 0.05 in Rain Light Rain
4:53 AM 43.0 °F 39.5 °F 42.1 °F 97% 29.29 in 3.0 mi SSE 5.8 mph - 0.04 in Rain Light Rain
5:53 AM 44.1 °F 39.0 °F 42.1 °F 93% 29.33 in 4.0 mi SSE 9.2 mph - 0.01 in Rain Light Rain
6:02 AM 44.6 °F 38.8 °F 42.8 °F 93% 29.32 in 5.0 mi SSE 11.5 mph - N/A Rain Light Rain
6:53 AM 44.6 °F 38.8 °F 42.8 °F 93% 29.36 in 7.0 mi SSE 11.5 mph 19.6 mph N/A Rain Rain
7:53 AM 46.4 °F 41.1 °F 44.6 °F 93% 29.39 in 3.0 mi SE 11.5 mph - N/A Rain Heavy Rain
8:53 AM 46.4 °F 41.9 °F 46.4 °F 100% 29.44 in 4.0 mi SE 9.2 mph - N/A Rain Rain
9:51 AM 48.2 °F - 44.6 °F 87% 29.50 in 10.0 mi SE 4.6 mph - N/A Rain Light Rain
9:53 AM 48.2 °F - 44.6 °F 87% 29.51 in 10.0 mi SE 4.6 mph - N/A Rain Light Rain
10:53 AM 48.2 °F - 46.4 °F 93% 29.57 in 10.0 mi ESE 6.9 mph - N/A   Overcast
11:53 AM 50.0 °F - 46.4 °F 87% 29.62 in 10.0 mi ESE 10.4 mph - N/A   Overcast
12:53 PM 50.0 °F - 46.4 °F 87% 29.68 in 10.0 mi SE 6.9 mph - N/A   Overcast
1:53 PM 51.8 °F - 44.6 °F 76% 29.72 in 10.0 mi SE 5.8 mph - N/A   Overcast
2:53 PM 50.0 °F - 44.6 °F 82% 29.78 in 10.0 mi Variable 3.5 mph - N/A   Scattered Clouds
2:56 PM 50.0 °F - 45.0 °F 83% 29.78 in 10.0 mi SE 4.6 mph - N/A   Mostly Cloudy
3:53 PM 50.0 °F - 46.4 °F 87% 29.83 in 10.0 mi Calm Calm - N/A   Mostly Cloudy
4:53 PM 46.9 °F - 44.1 °F 90% 29.88 in 10.0 mi SSE 4.6 mph - N/A   Scattered Clouds
5:53 PM 45.0 °F 42.6 °F 41.0 °F 86% 29.94 in 10.0 mi South 4.6 mph - N/A   Clear
6:53 PM 45.0 °F 40.6 °F 42.1 °F 90% 29.97 in 10.0 mi South 8.1 mph - N/A   Clear
7:53 PM 45.0 °F 40.6 °F 42.1 °F 90% 30.00 in 10.0 mi SSE 8.1 mph - N/A   Scattered Clouds
8:53 PM 46.0 °F 41.9 °F 43.0 °F 89% 30.04 in 10.0 mi SE 8.1 mph - 0.00 in Rain Light Rain
9:53 PM 46.9 °F - 45.0 °F 93% 30.06 in 3.0 mi SSE 3.5 mph - 0.09 in Rain Heavy Rain
9:58 PM 46.9 °F - 45.0 °F 93% 30.06 in 3.0 mi SSE 4.6 mph - 0.01 in Rain Rain
10:17 PM 46.9 °F - 45.0 °F 93% 30.06 in 7.0 mi ESE 11.5 mph - 0.04 in Rain Light Rain
10:27 PM 46.9 °F - 45.0 °F 93% 30.06 in 10.0 mi ESE 10.4 mph - 0.05 in Rain Light Rain
10:44 PM 46.9 °F - 46.0 °F 97% 30.07 in 10.0 mi SE 10.4 mph - 0.05 in Rain Light Rain
10:53 PM 46.9 °F - 45.0 °F 93% 30.09 in 8.0 mi ESE 10.4 mph - 0.06 in Rain Light Rain
11:08 PM 46.9 °F - 44.1 °F 90% 30.09 in 10.0 mi ESE 10.4 mph - 0.00 in   Overcast
11:21 PM 46.0 °F 41.0 °F 44.1 °F 93% 30.09 in 10.0 mi ESE 10.4 mph - 0.00 in   Overcast
11:53 PM 46.9 °F - 44.1 °F 90% 30.11 in 10.0 mi SE 13.8 mph - 0.00 in Rain Light Rain